Regional Weather Roundup
Issued by NWS

Home | Current Version | Previous Version | Graphics & Text | Print | Product List | Glossary On
Versions: 1 2 3 4 5 6 7 8 9 10 11 12 13 14 15 16 17 18 19 20 21 22 23 24 25 26 27 28 29 30 31 32 33 34 35 36 37 38 39 40 41 42 43 44 45 46 47 48 49 50
000
ASUS43 KFSD 301802
RWRSD

WEATHER ROUNDUP FOR SOUTH DAKOTA
NATIONAL WEATHER SERVICE SIOUX FALLS SD
100 PM CDT TUE AUG 30 2016

NOTE: "FAIR" INDICATES FEW OR NO CLOUDS BELOW 12,000 FEET WITH NO
SIGNIFICANT WEATHER AND/OR OBSTRUCTIONS TO VISIBILITY.


SDZ001>005-009-010-012>017-301900-
NORTHWEST AND NORTH CENTRAL SOUTH DAKOTA

CITY           SKY/WX    TMP DP  RH WIND       PRES   REMARKS
BUFFALO          N/A     80  63  55 SE14      30.17S
FAITH            N/A     80  64  58 SE12      30.22F
MOBRIDGE       SUNNY     84  56  38 E10       30.19F
$$

SDZ012>016-024>037-041>051-057-063-072>074-301900-
SOUTHWEST AND SOUTH CENTRAL SOUTH DAKOTA

CITY           SKY/WX    TMP DP  RH WIND       PRES   REMARKS
RAPID CTY ARPT SUNNY     77  65  66 SE12      30.24F
PIERRE         PTSUNNY   82  68  62 SE10      30.18F
CUSTER         SUNNY     75  48  38 SE9       30.37F
ELLSWORTH AFB  SUNNY    N/A N/A N/A SE10      30.23F
PHILIP         SUNNY     82  66  58 SE6       30.20F
PINE RIDGE     CLOUDY    83  56  39 S5        30.24F
WINNER         FAIR      87  67  51 SE10      30.20F
$$

SDZ004>011-016>023-039-040-301900-
NORTHEAST SOUTH DAKOTA

CITY           SKY/WX    TMP DP  RH WIND       PRES   REMARKS
ABERDEEN       SUNNY     80  56  43 NE12      30.22F
WATERTOWN      MOSUNNY   77  60  55 E8        30.24F
SISSETON         N/A     78  53  41 NE6       30.22F
$$

SDZ017-020-022-023-036>040-048>070-301900-
SOUTHEAST SOUTH DAKOTA

CITY           SKY/WX    TMP DP  RH WIND       PRES   REMARKS
SIOUX FALLS    PTSUNNY   83  70  64 NW3       30.21F
HURON          PTSUNNY   82  67  60 E6        30.19F
CHAMBERLAIN    SUNNY     86  71  59 SE9       30.20S
MITCHELL       SUNNY     83  68  60 VRB5      30.20F
YANKTON        PTSUNNY   79  66  65 S6        30.18F
$$

ABBREVIATIONS USED IN REMARKS
   TC - TEMPERATURE IN CELSIUS
  WCI - WIND CHILL INDEX
   HX - HEAT INDEX
  VSB - VISIBILITY




USA.gov is the U.S. government's official web portal to all federal, state and local government web resources and services.